FW8288 Weather Reports


Display with metric or nautical units.
time (UTC)temp
F
wind
direction
speed
MPH
gust
MPH
rain 1hr
in
rain 24hr
in
rain mn
in
humidity
%
barometer
mb
20260505091557 70 166 0.0 3.0 0.00 0.00 0.00 89 1009.9
20260505090107 70 0 0.0 4.0 0.00 0.00 0.00 88 1010.0
20260505084600 70 166 0.0 3.0 0.00 0.00 0.00 88 1010.0
20260505083103 70 0 0.0 0.0 0.00 0.00 0.00 88 1010.3
20260505081559 70 0 0.0 2.0 0.00 0.00 0.00 88 1010.2
20260505080058 70 0 0.0 4.0 0.00 0.00 0.00 88 1010.4
20260505074558 70 166 0.0 3.0 0.00 0.00 0.00 87 1010.4
20260505073100 70 166 2.0 6.0 0.00 0.00 0.00 87 1010.4
20260505071600 70 0 1.0 3.0 0.00 0.00 0.00 86 1010.6
20260505064559 70 0 1.0 4.0 0.00 0.00 0.00 85 1011.0
20260505063059 70 166 1.0 4.0 0.00 0.00 0.00 85 1011.2
20260505061612 70 0 0.0 3.0 0.00 0.00 0.00 85 1011.3
20260505054600 70 0 0.0 4.0 0.00 0.00 0.00 84 1011.3
20260505053107 71 166 1.0 4.0 0.00 0.00 0.00 83 1011.5
20260505051558 71 166 1.0 3.0 0.00 0.00 0.00 83 1011.9
20260505041559 72 166 1.0 6.0 0.00 0.00 0.00 80 1011.9
20260505040104 72 166 1.0 4.0 0.00 0.00 0.00 80 1012.1
20260505034558 72 0 0.0 4.0 0.00 0.00 0.00 79 1012.1
20260505033114 72 0 0.0 3.0 0.00 0.00 0.00 79 1012.3
20260505031559 72 0 1.0 5.0 0.00 0.00 0.00 78 1012.3
20260505030100 72 0 1.0 4.0 0.00 0.00 0.00 78 1012.2
20260505024604 73 167 1.0 5.0 0.00 0.00 0.00 77 1012.2
20260505023107 73 167 3.0 5.0 0.00 0.00 0.00 76 1012.1
20260505021557 73 167 2.0 6.0 0.00 0.00 0.00 75 1012.0
20260505020056 74 167 3.0 8.0 0.00 0.00 0.00 75 1011.8
20260505014558 74 167 2.0 9.0 0.00 0.00 0.00 74 1011.9
20260505013055 74 0 2.0 7.0 0.00 0.00 0.00 73 1011.5
20260505011601 75 166 2.0 6.0 0.00 0.00 0.00 73 1011.5
20260505004601 76 166 2.0 7.0 0.00 0.00 0.00 70 1011.5
20260505003102 76 167 2.0 6.0 0.00 0.00 0.00 71 1011.5
20260505001557 76 167 2.0 7.0 0.00 0.00 0.00 70 1011.3
20260504234617 78 166 2.0 7.0 0.00 0.00 0.00 68 1011.5
20260504233058 78 167 2.0 6.0 0.00 0.00 0.00 67 1011.8
20260504231605 78 167 2.0 7.0 0.00 0.00 0.00 67 1011.9
20260504230057 78 167 3.0 7.0 0.00 0.00 0.00 65 1012.0
20260504224605 79 166 3.0 7.0 0.00 0.00 0.00 63 1012.2
20260504223057 80 166 2.0 7.0 0.00 0.00 0.00 62 1012.1
20260504221604 80 166 2.0 8.0 0.00 0.00 0.00 62 1012.3
20260504220117 79 167 1.0 7.0 0.00 0.00 0.00 63 1012.7
20260504214604 80 167 2.0 5.0 0.00 0.00 0.00 61 1012.8
20260504213105 80 167 3.0 10.0 0.00 0.00 0.00 59 1012.9
20260504211605 81 167 2.0 9.0 0.00 0.00 0.00 57 1013.2
20260504210106 82 167 2.0 8.0 0.00 0.00 0.00 56 1013.1
20260504204639 81 167 1.0 7.0 0.00 0.00 0.00 56 1013.5
20260504203100 82 166 2.0 5.0 0.00 0.00 0.00 55 1013.5
20260504201602 81 167 3.0 6.0 0.00 0.00 0.00 55 1013.9
20260504194600 82 166 2.0 7.0 0.00 0.00 0.00 53 1014.2
20260504193102 84 166 3.0 6.0 0.00 0.00 0.00 50 1014.3
20260504191559 83 0 2.0 8.0 0.00 0.00 0.00 55 1014.5
20260504184605 82 166 2.0 6.0 0.00 0.00 0.00 53 1015.0
20260504183102 84 166 2.0 7.0 0.00 0.00 0.00 50 1014.9
20260504181602 83 166 2.0 6.0 0.00 0.00 0.00 52 1015.1
20260504174559 81 167 3.0 7.0 0.00 0.00 0.00 53 1015.6
20260504173058 79 167 3.0 8.0 0.00 0.00 0.00 57 1015.7
20260504171602 79 166 3.0 7.0 0.00 0.00 0.00 59 1016.0
20260504150105 74 166 2.0 8.0 0.00 0.00 0.00 66 1016.8
20260504110104 58 0 0.0 0.0 0.00 0.00 0.00 85 1016.5